Location: *
(2.5500°S, 65.9667°W)
Time: 06:07:19
(UTC+00:00)

Tiros 1 despin weight - Pass Details

Date: 19 April 2024
Orbit: 578 x 621 km, 48.2° (Epoch: 25 May)

Event Time Altitude Azimuth Distance (km) Brightness Sun altitude
Rises 03:54:09 0° 282° (WNW) 2,876 - -78.7°
Reaches altitude 10° 03:57:55 10° 251° (WSW) 1,966 - -79.2°
Maximum altitude 03:59:36 12° 229° (SW) 1,842 - -79.5°
Drops below altitude 10° 04:01:17 10° 207° (SSW) 1,960 - -79.7°
Sets 04:05:03 0° 175° (S) 2,855 - -80.2°
